DECAYED
Showing default

UMBRA-2001, 48906 (Decayed)

Orbit data source: Space-Track

UMBRA-2001, 48906 was a payload satellite owned by Umbra Labs (US) in LEO that was launched on Wed, 30 Jun 2021 UTC via an FALCON 9 launch vehicle from the Air Force Eastern Test Range (AFETR). Payloads include a variety of satellites, spacecraft, and rockets equipped with specific instruments for various scientific and technological missions. These include communications satellites like Starlink; space stations such as the ISS; scientific satellites like the Hubble; Earth observation satellites from companies like Planet Labs, Umbra, and HawkEye 360; GPS; miniature CubeSats for education and research; and military/defense satellites.

Not visible in the next 10 days
UMBRA-2001 details
Identifier
48906, 2021-059AD
Orbit
Decayed
Last TLE update9 months ago
Origin
Flag of USUmbra Labs (US)
ManufacturerUmbra Labs
MissionDecayed Commercial Radar Imaging
Bus & MotorUMBRA, Unknown motor
Mass65 kg wet, 60 kg dry
Launch date (UTC)
2021-06-30 (4 years ago)
Launch vehicle
FALCON 9
Launch site
Air Force Eastern Test Range (AFETR)
Object type
Payload
Rocket body
Debris
Shape & HBRBox + 2 Pan + 1 Dish, 3.8 m
Radar Cross Section0.929 m², Large (>1 m²)

Expand to show TLE details & history

TLE from 9 months ago
0 UMBRA-2001
1 48906U 21059AD  24121.62758556  .29722499  26589-5  18310-2 0  9992
2 48906  97.5682 263.1127 0014831 247.0672 239.4234 16.40337929157692
Epoch: 2024-04-30T15:03Z
Definitive object data (Epoch: 2024-04-30T15:03:43.392Z)
Latitude53.09308°
Longitude8.26386°
Altitude178.624 km
Speed7.801 km/s
True Right ascension06h 12m 58s
True Declination52° 54' 47"
Sunlit
Object was in daylight at TLE epoch
Visualization TLE readout
Latitude-47.9374°
Longitude-38.52809°
Altitude23,228.925 km
Speed3.68 km/s
Apparent Right ascension02h 08m 44s
Apparent Declination-53° 08' 23"
Sunlit
Object is in daylight
Visualization observer readout
Local Sidereal Time08:22:00
Azimuth225.36° WSW
Elevation-32.686°
Doppler factor1
Orbital elements
Apogee altitude171.418 km
Perigee altitude152.019 km
Semi-major axis6,539.856 km
Eccentricity0.0014831
Inclination97.5682°
RAAN263.1127°
Arg. of periapsis247.0672°
True anomaly239.27722°
Mean anomaly239.4234°
Eccentric anomaly239.3503°
Mean motion4.10384 °/min
BSTAR0.001831
Orbital period87.72 mins
Loading maneuver chart data...
Loading historical data...
Loading historical data...
Loading historical data...
Loading historical data...
Loading historical data...
Loading historical data...
Loading historical data...

UMBRA-2001 Visibility forecast

Observer location: undefined°, undefined

This satellite is decayed
Span
Click to sort rows by Start time (UTC) header in descending order
Start Az.
Max El. time (UTC)
Max El. Az.
Max El.
End time (UTC)
End Az.
|